[[{"header":{"parameterUnit":"m.s-1","parameterCategory":1,"la1":30.2991,"la2":30.254,"lo1":-89.0895,"lo2":-89.0444,"dy":0.0017,"dx":0.0017,"nx":28,"ny":28,"refTime":"2024-08-29T21:00:00:Z","depth":0,"parameterNumber":2,"parameterNumberName":"U-component_of_WINDS"},"data":[0,0,0,0,0,0,0,0,0,0,0,0,0,0,0,0,0,0,0,0,0,0,0,0,0,0,0,0,0,0,0,0,0,0,0,0,0,0,0,0,0,0,0,0,0,0,0,0,0,0,0,0,0,0,0,0,0,0,-4.8893,-4.8893,0,-4.8941,-4.8941,-4.8942,-4.8868,-4.8866,-4.8863,-4.8861,-4.8913,-4.8917,-4.8921,0,0,0,0,0,0,0,0,0,0,0,0,0,-4.8743,-4.8746,-4.8893,-4.8893,-4.8894,-4.8941,-4.8941,-4.8942,-4.8869,-4.8865,-4.8862,-4.8859,-4.8912,-4.8917,-4.8921,0,0,0,0,0,0,0,0,0,0,0,0,0,-4.8801,-4.8747,-4.8893,-4.8863,-4.8861,-4.894,-4.8941,-4.8942,-4.8869,-4.8865,-4.8862,-4.8858,-4.8911,-4.8916,-4.8922,-4.9034,0,0,-4.8939,-4.8942,0,0,0,0,0,0,0,0,-4.8798,-4.8807,-4.8867,-4.8865,-4.8863,-4.8894,-4.8908,-4.8973,-4.887,-4.8866,-4.886,-4.8856,-4.891,-4.8916,-4.8933,-4.9037,-4.9039,-4.894,-4.8943,-4.8946,-4.8947,0,0,0,0,0,0,0,-4.8794,-4.8804,-4.8912,-4.8868,-4.8865,-4.8849,-4.8853,-4.892,-4.8909,-4.8866,-4.8861,-4.8867,-4.8909,-4.8928,-4.8934,-4.904,-4.894,-4.8945,-4.8948,-4.895,-4.9238,-4.9242,0,0,0,0,0,0,-4.8793,-4.8801,-4.891,-4.8913,-4.882,-4.8855,-4.8859,-4.8888,-4.8908,-4.8908,-4.8871,-4.8864,-4.892,-4.8928,-4.8936,-4.9068,-4.8946,-4.8951,-4.8954,-4.9234,-4.9239,-4.9244,0,0,0,0,0,0,-4.879,-4.8803,-4.8908,-4.8856,-4.8868,-4.8861,-4.8895,-4.8891,-4.891,-4.8912,-4.891,-4.8892,-4.8918,-4.8928,-4.901,-4.9069,-4.8954,-4.8959,-4.9229,-4.9236,-4.9242,-4.9333,0,0,0,0,0,0,-4.8786,-4.8803,-4.8844,-4.8857,-4.8871,-4.898,-4.8898,-4.8895,-4.892,-4.8911,-4.8931,-4.8931,-4.8915,-4.9002,-4.9016,-4.9074,-4.8963,-4.9224,-4.9232,-4.924,-4.9325,-4.9342,-4.9356,0,0,0,0,0,-4.8781,-4.8868,-4.8846,-4.886,-4.8922,-4.8984,-4.8992,-4.8971,-4.8925,-4.8967,-4.8968,-4.893,-4.9061,-4.9011,-4.9026,-4.9087,-4.922,-4.923,-4.9239,-4.9318,-4.9338,-4.9356,0,0,0,0,0,0,-4.8862,-4.8869,-4.8845,-4.8939,-4.8961,-4.8971,-4.9023,-4.8994,-4.903,-4.902,-4.8995,-4.9,-4.9088,-4.9096,-4.9041,-4.9198,-4.9133,-4.9146,-4.9188,-4.9208,-4.9223,-4.9218,-4.8968,0,0,0,0,0,-4.8891,-4.8939,-4.8944,-4.9027,-4.9039,-4.903,-4.9056,-4.9038,-4.906,-4.907,-4.9077,-4.9101,-4.9148,-4.9179,-4.9222,-4.9327,-4.9331,-4.9377,-4.9393,-4.9406,-4.9416,-4.9473,-4.9493,-4.9275,-4.9275,-4.9275,0,0,-4.8951,-4.8961,-4.8993,-4.9043,-4.9058,-4.911,-4.9038,-4.9095,-4.9134,-4.9079,-4.9155,-4.9163,-4.9189,-4.9283,-4.9325,-4.9293,-4.9478,-4.9418,-4.9428,-4.9432,-4.9485,-4.9506,-4.9524,-4.9282,-4.928,-4.9279,0,0,-4.9086,-4.9099,-4.9169,-4.9186,-4.921,-4.9203,-4.9221,-4.9236,-4.9238,-4.9315,-4.9275,-4.9322,-4.9403,-4.9422,-4.9443,-4.959,-4.9556,-4.9605,-4.9686,-4.9742,-4.9759,-4.9774,-4.9825,-4.9844,-4.9616,-4.9617,-4.9617,0,-4.9158,-4.9232,-4.9209,-4.927,-4.9293,-4.9246,-4.9317,-4.9336,-4.9373,-4.9391,-4.9355,-4.9455,-4.947,-4.9568,-4.9604,-4.9623,-4.9642,-4.96,-4.9758,-4.9773,-4.9787,-4.9835,-4.9854,-4.9622,-4.9621,-4.9621,-4.962,0,-4.9319,-4.9372,-4.9426,-4.9462,-4.9492,-4.9558,-4.9546,-4.958,-4.9561,-4.956,-4.964,-4.9656,-4.9701,-4.9724,-4.9707,-4.9821,-4.98,-4.9762,-4.9696,-4.9813,-4.9858,-4.9877,-4.963,-4.9628,-4.9626,-4.9625,0,0,-4.9503,-4.9527,-4.9547,-4.9563,-4.9587,-4.9628,-4.9693,-4.9737,-4.9766,-4.9795,-4.9848,-4.9919,-4.9884,-4.9908,-4.9893,-4.9943,-5.0056,-4.9898,-4.9898,-4.9925,-5.0183,-5.0209,-5.0231,-5.0036,-5.004,-5.0042,-5.018,0,-4.9636,-4.9745,-4.9728,-4.9834,-4.9883,-4.9841,-4.9898,-4.992,-4.9922,-4.9965,-4.9967,-5.0016,-4.9967,-4.9981,-5.0029,-5.0032,-5.0107,-5.0023,-5.0086,-5.0088,-5.0077,-5.0254,-5.0282,-5.041,-5.0197,-5.02,-5.0203,0,-4.9804,-4.9838,-4.9949,-4.9966,-4.9986,-5.0037,-5.0076,-5.0118,-5.0143,-5.0141,-5.0169,-5.0146,-5.0212,-5.0149,-5.0241,-5.0184,-5.0209,-5.0216,-5.022,-5.0223,-5.015,-5.0259,-5.0451,-5.047,-5.023,-5.0228,-5.0226,0,-4.9925,-4.9999,-5.0074,-5.009,-5.0112,-5.0149,-5.0161,-5.0182,-5.021,-5.0246,-5.0263,-5.0307,-5.0331,-5.0366,-5.0356,-5.031,-5.045,-5.0385,-5.045,-5.045,-5.0478,-5.0476,-5.0674,-5.05,-5.05,-5.05,-5.0499,0,-5.0073,-5.0142,-5.0128,-5.0175,-5.0252,-5.0233,-5.0311,-5.0317,-5.0338,-5.0386,-5.0354,-5.04,-5.0386,-5.0432,-5.0426,-5.0502,-5.0514,-5.0514,-5.0511,-5.0515,-5.0515,-5.0529,-5.0519,-5.0505,-5.0504,-5.0503,-5.0502,0,-5.0218,-5.0212,-5.0292,-5.0307,-5.0313,-5.0369,-5.0383,-5.0428,-5.0428,-5.0489,-5.0503,-5.0504,-5.0557,-5.0551,-5.0611,-5.0607,-5.0702,-5.069,-5.0692,-5.0688,-5.0752,-5.0745,-5.0964,-5.0991,-5.0803,-5.0804,-5.0806,0,-5.0312,-5.0364,-5.0385,-5.0414,-5.0428,-5.0476,-5.0504,-5.049,-5.052,-5.0555,-5.0595,-5.0646,-5.0684,-5.0772,-5.0778,-5.0825,-5.0811,-5.0885,-5.0818,-5.0821,-5.081,-5.0806,-5.081,-5.0897,-5.0899,-5.0901,-5.0903,0,-5.0477,-5.0472,-5.0513,-5.0553,-5.0587,-5.0619,-5.0648,-5.0674,-5.0663,-5.0699,-5.0752,-5.0783,-5.0844,-5.0894,-5.0939,-5.0952,-5.0926,-5.0925,-5.0941,-5.0944,-5.0943,-5.0942,-5.0725,-5.0918,-5.0917,-5.0916,-5.0915,-5.0914,-5.0598,-5.0642,-5.0664,-5.0711,-5.0731,-5.0759,-5.0801,-5.0807,-5.085,-5.0897,-5.0888,-5.0948,-5.0974,-5.1031,-5.105,-5.1098,-5.1071,-5.1096,-5.1102,-5.1107,-5.1114,-5.0938,-5.1106,-5.1106,-5.1105,-5.1105,-5.1105,0,-5.076,-5.0772,-5.0816,-5.0856,-5.0894,-5.0866,-5.0897,-5.093,-5.0983,-5.1009,-5.1048,-5.111,-5.116,-5.1172,-5.1219,-5.1256,-5.1245,-5.1269,-5.1264,-5.1268,-5.1136,-5.1115,-5.1276,-5.1276,-5.1276,-5.1276,-5.1276,-5.1276,-5.0848,-5.0921,-5.0919,-5.1003,-5.1016,-5.1072,-5.1092,-5.1119,-5.1139,-5.1209,-5.125,-5.1257,-5.1278,-5.1328,-5.1372,-5.1375,-5.1393,-5.1421,-5.1419,-5.1294,-5.1277,-5.126,-5.1241,-5.1426,-5.1426,-5.1546,-5.1547,-5.1548]},{"header":{"parameterUnit":"m.s-1","parameterCategory":1,"la1":30.2991,"la2":30.254,"lo1":-89.0895,"lo2":-89.0444,"dy":0.0017,"dx":0.0017,"nx":28,"ny":28,"refTime":"2024-08-29T21:00:00:Z","depth":0,"parameterNumber":3,"parameterNumberName":"V-component_of_WINDS"},"data":[0,0,0,0,0,0,0,0,0,0,0,0,0,0,0,0,0,0,0,0,0,0,0,0,0,0,0,0,0,0,0,0,0,0,0,0,0,0,0,0,0,0,0,0,0,0,0,0,0,0,0,0,0,0,0,0,0,0,3.7492,3.7491,0,3.7418,3.7417,3.7416,3.7332,3.733,3.7329,3.7328,3.725,3.7249,3.7248,0,0,0,0,0,0,0,0,0,0,0,0,0,3.7559,3.7558,3.7492,3.7491,3.749,3.7418,3.7417,3.7416,3.7332,3.733,3.7329,3.7327,3.725,3.7249,3.7248,0,0,0,0,0,0,0,0,0,0,0,0,0,3.7512,3.7558,3.7492,3.7439,3.7434,3.7418,3.7417,3.7416,3.7332,3.733,3.7328,3.7327,3.725,3.7249,3.7248,3.7277,0,0,3.7244,3.7243,0,0,0,0,0,0,0,0,3.7514,3.7509,3.7448,3.7443,3.7437,3.7382,3.7412,3.7369,3.7333,3.7371,3.7328,3.7326,3.7295,3.729,3.728,3.7273,3.727,3.7243,3.7243,3.7242,3.7242,0,0,0,0,0,0,0,3.7518,3.7512,3.7462,3.7447,3.744,3.7419,3.741,3.7403,3.7344,3.7367,3.7361,3.7353,3.7292,3.7282,3.7278,3.7269,3.7243,3.7242,3.7241,3.7241,3.7283,3.7285,0,0,0,0,0,0,3.7529,3.7515,3.7465,3.746,3.7472,3.7419,3.7409,3.7401,3.7344,3.7334,3.7355,3.735,3.7285,3.7279,3.7275,3.7305,3.7242,3.7241,3.724,3.7281,3.7284,3.7286,0,0,0,0,0,0,3.7531,3.7525,3.7468,3.7486,3.7477,3.742,3.7412,3.7401,3.7391,3.7335,3.7324,3.7356,3.7283,3.7277,3.7277,3.7301,3.724,3.7239,3.7279,3.7282,3.7285,3.7366,0,0,0,0,0,0,3.7533,3.7527,3.7537,3.7487,3.7476,3.7472,3.7413,3.7401,3.7389,3.7381,3.7333,3.7323,3.7281,3.728,3.7276,3.7298,3.7238,3.7277,3.728,3.7284,3.7361,3.7371,3.738,0,0,0,0,0,3.7536,3.7562,3.7538,3.7532,3.7488,3.7474,3.7467,3.742,3.7391,3.7401,3.7366,3.7324,3.73,3.7281,3.7276,3.7298,3.7275,3.7279,3.7283,3.7357,3.7369,3.738,0,0,0,0,0,0,3.7615,3.7555,3.7527,3.7538,3.7512,3.7459,3.747,3.7435,3.7415,3.7408,3.735,3.7339,3.7347,3.7323,3.7303,3.7323,3.7281,3.7285,3.7339,3.735,3.736,3.7364,3.7237,0,0,0,0,0,3.7635,3.7628,3.7575,3.759,3.7578,3.7527,3.7519,3.7485,3.7455,3.7443,3.7407,3.7379,3.7365,3.7357,3.734,3.7358,3.7346,3.7371,3.7381,3.7389,3.7392,3.7399,3.7409,3.73,3.73,3.73,0,0,3.7673,3.7639,3.7638,3.7605,3.7581,3.7575,3.7518,3.7514,3.7509,3.7442,3.744,3.7414,3.7379,3.7388,3.739,3.7368,3.742,3.7394,3.7401,3.74,3.7405,3.7415,3.7424,3.7303,3.7302,3.7302,0,0,3.774,3.7714,3.7724,3.7701,3.7666,3.7632,3.7635,3.7588,3.7568,3.7566,3.7516,3.7509,3.7486,3.7463,3.7449,3.7511,3.7472,3.7507,3.7557,3.7565,3.7573,3.7581,3.7602,3.761,3.7511,3.7511,3.7511,0,3.7792,3.7781,3.7733,3.7732,3.7719,3.7661,3.767,3.765,3.7611,3.7603,3.7579,3.755,3.7522,3.7525,3.7541,3.7531,3.7532,3.7511,3.7576,3.7583,3.7589,3.7609,3.7617,3.7516,3.7515,3.7515,3.7514,0,3.7847,3.7841,3.7853,3.7818,3.7806,3.7811,3.7763,3.7757,3.7725,3.7694,3.7694,3.7659,3.7635,3.7634,3.7602,3.7633,3.762,3.7587,3.7543,3.7605,3.7622,3.7629,3.7522,3.752,3.7519,3.7518,0,0,3.7958,3.7899,3.7903,3.7887,3.7845,3.7839,3.7842,3.782,3.7816,3.7792,3.7792,3.7775,3.7745,3.7729,3.7694,3.7702,3.7752,3.7668,3.7666,3.7683,3.7784,3.7808,3.7817,3.7728,3.7729,3.773,3.7786,0,3.8016,3.8016,3.7974,3.7986,3.798,3.7926,3.7928,3.7903,3.7875,3.7865,3.7834,3.7822,3.7784,3.7774,3.7779,3.7745,3.7771,3.7741,3.7726,3.7726,3.7734,3.7826,3.785,3.7905,3.7793,3.7794,3.7795,0,3.8082,3.8064,3.8076,3.8035,3.8031,3.8033,3.801,3.8002,3.7973,3.7952,3.7936,3.7897,3.7896,3.7857,3.7855,3.7835,3.7827,3.781,3.7811,3.7806,3.7762,3.7822,3.7922,3.7929,3.7805,3.7804,3.7804,0,3.8161,3.8139,3.8143,3.8131,3.8084,3.8087,3.8068,3.8036,3.8026,3.8007,3.7999,3.798,3.7969,3.7954,3.7912,3.7887,3.7914,3.7872,3.7896,3.7897,3.7902,3.7901,3.8,3.79,3.79,3.79,3.79,0,3.8228,3.8237,3.8178,3.818,3.819,3.8142,3.8152,3.8127,3.81,3.8097,3.8049,3.8047,3.7992,3.7983,3.795,3.7953,3.7949,3.7931,3.7922,3.7934,3.7937,3.7926,3.7921,3.7902,3.7902,3.7901,3.7901,0,3.8316,3.8276,3.8278,3.8234,3.8223,3.8232,3.8194,3.8194,3.8165,3.8161,3.8158,3.8111,3.8099,3.8056,3.8032,3.801,3.8023,3.8007,3.8033,3.8027,3.8053,3.8051,3.8147,3.8157,3.8053,3.8054,3.8055,0,3.836,3.8366,3.8324,3.8319,3.8302,3.8294,3.8284,3.8239,3.823,3.8199,3.8203,3.8187,3.8172,3.8155,3.8119,3.8101,3.8082,3.8118,3.8079,3.8092,3.8081,3.8081,3.8081,3.8125,3.8126,3.8127,3.8128,0,3.8443,3.8424,3.8412,3.8394,3.8384,3.8368,3.8348,3.8347,3.8296,3.8289,3.8277,3.8265,3.8243,3.8228,3.8205,3.8184,3.8147,3.8142,3.8146,3.8157,3.8172,3.8163,3.8054,3.8139,3.8138,3.8137,3.8136,3.8136,3.8509,3.8512,3.8483,3.8472,3.8454,3.8437,3.8436,3.8407,3.8396,3.8375,3.8349,3.834,3.8312,3.8278,3.826,3.8252,3.8232,3.8239,3.824,3.8242,3.8247,3.8176,3.8248,3.8247,3.8247,3.8247,3.8247,0,3.8588,3.8568,3.8558,3.8534,3.8525,3.8495,3.8472,3.8466,3.846,3.8437,3.8424,3.8411,3.8396,3.836,3.8342,3.8343,3.8326,3.834,3.8338,3.8334,3.8267,3.8264,3.8354,3.8354,3.8354,3.8354,3.8354,3.8354,3.8628,3.8632,3.861,3.8605,3.8584,3.8576,3.8566,3.855,3.8532,3.852,3.8508,3.8486,3.8457,3.8438,3.8424,3.8413,3.8408,3.8427,3.8412,3.8349,3.8339,3.8329,3.8326,3.8427,3.8427,3.8479,3.8479,3.848]}]]